GW2670 Weather Reports


time (UTC)temp
F
wind
direction
speed
knots
gust
knots
rain 1hr
in
rain 24hr
in
rain mn
in
humidity
%
barometer
mb
20260506134535 58 335 0.0 5.2 0.00 0.55 0.00 60 1011.1
20260506134014 58 189 0.0 2.6 0.00 0.55 0.00 63 1011.0
20260506133511 58 232 0.9 4.3 0.00 0.55 0.00 64 1011.1
20260506133029 58 193 1.7 6.1 0.00 0.55 0.00 60 1011.1
20260506132515 58 205 1.7 6.1 0.00 0.55 0.00 64 1011.1
20260506132012 58 102 0.9 8.7 0.00 0.55 0.00 60 1011.1
20260506131535 58 221 0.9 8.7 0.00 0.55 0.00 61 1011.0
20260506131014 59 287 2.6 7.8 0.00 0.55 0.00 59 1011.2
20260506130516 59 63 0.9 2.6 0.00 0.55 0.00 65 1011.2
20260506130032 58 248 0.0 2.6 0.00 0.55 0.00 65 1011.1
20260506125514 58 277 0.0 6.1 0.00 0.55 0.00 64 1011.3
20260506125014 57 0 1.7 6.1 0.00 0.55 0.00 60 1011.3
20260506124530 57 230 0.9 7.0 0.00 0.55 0.00 64 1011.2
20260506124014 57 275 0.9 7.8 0.00 0.55 0.00 64 1011.2
20260506123512 56 284 1.7 7.8 0.00 0.55 0.00 66 1011.3
20260506123038 56 197 1.7 7.8 0.00 0.55 0.00 67 1011.2
20260506122514 56 30 1.7 9.6 0.00 0.55 0.00 66 1011.2
20260506122015 56 14 3.5 10.4 0.00 0.55 0.00 64 1011.2
20260506121529 56 336 2.6 10.4 0.00 0.55 0.00 65 1011.1
20260506121013 56 214 2.6 10.4 0.00 0.55 0.00 65 1011.1
20260506120515 56 44 3.5 7.0 0.00 0.55 0.00 65 1011.2
20260506120032 57 59 0.9 7.0 0.00 0.55 0.00 66 1011.1
20260506115514 57 334 2.6 7.0 0.00 0.55 0.00 63 1011.1
20260506115013 58 207 1.7 7.0 0.00 0.55 0.00 66 1011.1
20260506114530 57 44 2.6 8.7 0.00 0.55 0.00 66 1011.2
20260506114016 57 332 1.7 8.7 0.00 0.55 0.00 66 1011.1
20260506113514 57 311 1.7 8.7 0.00 0.55 0.00 65 1011.1
20260506113036 58 317 2.6 8.7 0.00 0.55 0.00 66 1011.0
20260506112515 58 311 3.5 8.7 0.00 0.55 0.00 60 1011.1
20260506112017 59 227 1.7 8.7 0.00 0.55 0.00 62 1011.1
20260506111711 58 147 0.9 3.5 0.00 0.55 0.00 67 1011.1
20260506111016 57 316 0.9 7.0 0.00 0.55 0.00 66 1011.1
20260506110518 55 57 2.6 7.0 0.00 0.55 0.00 65 1011.2
20260506110040 56 276 1.7 5.2 0.00 0.55 0.00 68 1011.3
20260506105516 56 329 0.9 9.6 0.00 0.55 0.00 68 1011.3
20260506105025 56 306 2.6 9.6 0.00 0.55 0.00 67 1011.3
20260506104530 56 335 4.3 9.6 0.00 0.55 0.00 65 1011.2
20260506104018 56 331 2.6 7.0 0.00 0.55 0.00 68 1011.3
20260506103517 55 41 1.7 8.7 0.00 0.55 0.00 73 1011.3
20260506103028 54 341 4.3 8.7 0.00 0.55 0.00 71 1011.3
20260506102512 53 66 3.5 8.7 0.00 0.55 0.00 71 1011.4
20260506102012 55 39 1.7 7.8 0.00 0.55 0.00 73 1011.4
20260506101533 56 318 0.9 3.5 0.00 0.55 0.00 74 1011.3
20260506101016 55 263 0.9 5.2 0.00 0.55 0.00 73 1011.3
20260506100621 55 241 0.0 5.2 0.00 0.55 0.00 74 1011.2
20260506100516 55 241 0.0 5.2 0.00 0.55 0.00 74 1011.2
20260506100030 55 34 2.6 5.2 0.00 0.55 0.00 73 1011.1
20260506095514 54 266 0.0 6.1 0.00 0.55 0.00 78 1011.3
20260506095031 54 10 0.9 6.1 0.00 0.55 0.00 75 1011.3
20260506094530 54 146 0.0 4.3 0.00 0.55 0.00 76 1011.2
20260506094016 54 311 0.9 5.2 0.00 0.55 0.00 78 1011.1
20260506093516 53 350 1.7 7.8 0.00 0.55 0.00 78 1011.2
20260506093034 52 341 2.6 8.7 0.00 0.55 0.00 76 1011.2
20260506092514 52 278 3.5 8.7 0.00 0.55 0.00 78 1011.0
20260506092014 53 23 2.6 6.1 0.00 0.55 0.00 77 1011.1
20260506091531 53 347 3.5 6.1 0.00 0.55 0.00 78 1011.1
20260506091017 52 337 1.7 4.3 0.00 0.55 0.00 80 1011.1
20260506090520 52 329 1.7 4.3 0.00 0.55 0.00 81 1011.1
20260506090038 51 0 0.0 4.3 0.00 0.55 0.00 83 1011.1
20260506085513 51 289 0.9 4.3 0.00 0.55 0.00 82 1011.1
20260506085013 51 279 0.9 4.3 0.00 0.55 0.00 83 1011.1
20260506084537 51 30 1.7 5.2 0.00 0.55 0.00 81 1011.1
20260506084014 51 22 0.9 7.8 0.00 0.55 0.00 81 1011.0
20260506083515 51 315 1.7 7.8 0.00 0.55 0.00 81 1010.9
20260506083032 51 256 1.7 7.8 0.00 0.55 0.00 81 1010.9
20260506082516 51 24 0.9 7.0 0.00 0.55 0.00 83 1010.9
20260506082014 51 44 1.7 7.0 0.00 0.55 0.00 82 1010.8
20260506081530 51 323 1.7 7.0 0.00 0.55 0.00 83 1010.7
20260506081016 51 292 0.9 7.8 0.00 0.55 0.00 85 1010.7
20260506080515 50 45 1.7 7.8 0.00 0.55 0.00 85 1010.7
20260506073518 49 346 3.5 7.8 0.00 0.55 0.00 87 1010.5
20260506073032 49 328 2.6 7.8 0.00 0.55 0.00 89 1010.6
20260506072515 49 283 2.6 7.8 0.00 0.55 0.00 89 1010.6
20260506072015 49 336 1.7 7.0 0.00 0.55 0.00 90 1010.7
20260506071531 49 348 0.9 3.5 0.00 0.55 0.00 90 1010.6
20260506071016 49 346 2.6 7.0 0.00 0.55 0.00 90 1010.6
20260506070518 48 327 2.6 7.0 0.00 0.55 0.00 91 1010.4
20260506062514 47 335 1.7 4.3 0.00 0.56 0.00 95 1010.4
20260506062018 47 327 0.0 1.7 0.00 0.56 0.00 95 1010.4
20260506061530 46 346 0.9 1.7 0.00 0.56 0.00 95 1010.5
20260506061014 47 309 0.9 1.7 0.00 0.56 0.00 96 1010.4
20260506060628 46 322 0.0 1.7 0.00 0.56 0.00 95 1010.5
20260506060447 46 321 0.0 0.9 0.00 0.56 0.00 96 1010.3
20260506051013 46 0 0.0 0.9 0.00 0.56 0.00 95 1009.9
20260506050620 46 0 0.0 0.9 0.00 0.56 0.00 96 1009.9
20260506045014 46 0 0.0 0.9 0.00 0.58 0.00 95 1009.8
20260506044543 46 0 0.0 0.9 0.00 0.58 0.00 95 1009.7
20260506044013 46 0 0.0 0.9 0.00 0.58 0.00 95 1009.7
20260506043541 46 0 0.0 0.9 0.00 0.58 0.00 95 1009.7
20260506043035 46 0 0.0 0.9 0.00 0.57 0.00 95 1009.7
20260506042514 46 360 0.0 0.9 0.00 0.57 0.00 95 1009.7
20260506042018 46 0 0.0 0.9 0.00 0.57 0.00 95 1009.8
20260506041533 46 0 0.0 0.9 0.00 0.57 0.00 95 1009.8
20260506041020 46 0 0.0 0.9 0.00 0.57 0.00 95 1009.8
20260506040513 46 0 0.0 0.9 0.00 0.57 0.00 95 1009.7
20260506040029 46 0 0.0 0.9 0.00 0.57 0.00 95 1009.8
20260506035514 46 360 0.0 0.9 0.00 0.58 0.00 95 1009.7
20260506035013 46 0 0.0 0.9 0.00 0.58 0.00 95 1009.8
20260506034531 46 0 0.0 0.9 0.00 0.58 0.00 95 1009.7
20260506034011 46 0 0.0 0.9 0.00 0.58 0.00 95 1009.7
20260506033541 46 360 0.0 0.9 0.00 0.58 0.00 95 1009.7
20260506033031 46 0 0.0 0.9 0.00 0.58 0.00 95 1009.7
20260506032512 46 5 0.0 0.9 0.00 0.58 0.00 95 1009.8
20260506032012 46 310 0.0 0.0 0.00 0.58 0.00 95 1009.8
20260506031544 46 0 0.0 0.0 0.00 0.58 0.00 95 1009.8
20260506031016 46 307 0.0 0.0 0.00 0.58 0.00 95 1009.8
20260506030515 46 0 0.0 0.0 0.00 0.58 0.00 95 1009.9
20260506030031 46 0 0.0 0.9 0.00 0.58 0.00 95 1009.8
20260506025618 46 0 0.0 0.9 0.00 0.58 0.00 95 1009.8
20260506025011 46 0 0.0 0.9 0.00 0.58 0.00 95 1009.8
20260506024556 46 0 0.0 0.9 0.00 0.58 0.00 95 1009.9
20260506024013 46 335 0.0 0.9 0.00 0.58 0.00 95 1009.8
20260506023513 46 319 0.0 0.9 0.00 0.58 0.00 95 1009.8
20260506023030 46 318 0.0 0.0 0.00 0.58 0.00 95 1009.8
20260506022516 46 0 0.0 0.0 0.00 0.58 0.00 95 1009.8
20260506022014 46 0 0.0 0.0 0.00 0.58 0.00 95 1009.9
20260506021533 46 0 0.0 0.0 0.00 0.58 0.00 95 1009.9
20260506021016 46 0 0.0 0.0 0.00 0.58 0.00 95 1009.8
20260506020611 46 0 0.0 0.9 0.00 0.58 0.00 95 1009.9
20260506020030 46 0 0.0 0.9 0.00 0.58 0.00 95 1009.8
20260506015514 46 0 0.0 1.7 0.00 0.59 0.00 95 1009.8
20260506015239 46 26 0.9 1.7 0.00 0.59 0.00 95 1009.7
20260506014635 46 350 0.0 0.9 0.00 0.59 0.00 95 1009.8
20260506014013 46 350 0.0 0.9 0.00 0.59 0.00 95 1009.7
20260506013511 46 0 0.0 0.9 0.00 0.59 0.00 95 1009.8
20260506013035 46 350 0.0 0.9 0.00 0.59 0.00 95 1009.8
20260506012513 46 350 0.0 0.9 0.00 0.59 0.00 95 1009.7
20260506012014 46 0 0.0 1.7 0.00 0.59 0.00 95 1009.7
20260506011527 46 350 0.9 1.7 0.00 0.59 0.00 95 1009.7
20260506011016 46 90 0.0 0.9 0.00 0.59 0.00 95 1009.8
20260506010518 46 0 0.0 0.9 0.00 0.59 0.00 95 1009.8
20260506010049 46 0 0.0 0.9 0.00 0.59 0.00 95 1009.8
20260506005514 46 96 0.0 0.0 0.00 0.61 0.00 95 1009.9
20260506005013 46 0 0.0 0.0 0.00 0.61 0.00 95 1010.0
20260506004532 46 0 0.0 0.0 0.00 0.61 0.00 95 1010.0
20260506004012 46 0 0.0 0.0 0.00 0.61 0.00 95 1010.0
20260506003512 46 0 0.0 0.0 0.00 0.61 0.00 95 1010.0
20260506003030 46 0 0.0 0.0 0.00 0.61 0.00 95 1010.1
20260506002516 46 0 0.0 0.0 0.00 0.61 0.00 95 1010.1
20260506002013 46 0 0.0 0.0 0.00 0.61 0.00 95 1010.2
20260506001530 46 0 0.0 0.0 0.00 0.61 0.00 95 1010.3
20260506001010 46 0 0.0 0.0 0.00 0.61 0.00 95 1010.4
20260506000512 46 0 0.0 0.0 0.00 0.61 0.00 95 1010.4
20260506000029 46 0 0.0 0.9 0.00 0.61 0.00 95 1010.4
20260505235517 46 0 0.0 0.9 0.00 0.61 0.00 95 1010.4
20260505235015 46 96 0.0 0.9 0.00 0.61 0.00 95 1010.4
20260505234530 46 0 0.0 0.0 0.00 0.61 0.00 94 1010.5
20260505234014 46 0 0.0 0.9 0.00 0.61 0.00 94 1010.6
20260505233512 46 0 0.0 0.9 0.00 0.61 0.00 94 1010.5
20260505233030 46 0 0.0 0.9 0.00 0.61 0.00 94 1010.6
20260505232517 46 0 0.0 0.9 0.00 0.61 0.00 94 1010.8
20260505232013 46 96 0.0 0.9 0.00 0.61 0.00 94 1010.9
20260505231528 46 19 0.0 0.9 0.00 0.61 0.00 94 1010.9
20260505231012 46 19 0.0 0.9 0.00 0.61 0.00 94 1010.9
20260505230512 46 0 0.0 0.9 0.00 0.61 0.00 94 1011.0
20260505230038 46 19 0.0 0.0 0.00 0.61 0.00 94 1011.1
20260505225513 46 0 0.0 0.0 0.00 0.62 0.00 94 1011.0
20260505225010 46 0 0.0 0.0 0.00 0.62 0.00 94 1011.0
20260505224532 46 0 0.0 0.9 0.00 0.62 0.00 94 1011.1
20260505224013 46 0 0.0 0.9 0.00 0.62 0.00 94 1011.1
20260505223512 46 0 0.0 0.9 0.00 0.62 0.00 94 1011.1
20260505223029 46 0 0.0 0.9 0.00 0.62 0.00 94 1011.1
20260505222510 46 0 0.0 0.9 0.00 0.62 0.00 94 1011.1
20260505222015 46 0 0.0 0.9 0.00 0.62 0.00 94 1011.2
20260505221528 46 351 0.0 1.7 0.00 0.62 0.00 94 1011.1
20260505221013 46 0 0.0 1.7 0.00 0.62 0.00 94 1011.3
20260505220612 46 10 0.9 2.6 0.00 0.62 0.00 94 1011.3
20260505220030 46 323 0.9 2.6 0.00 0.62 0.00 94 1011.3
20260505215513 46 5 0.9 2.6 0.01 0.74 0.62 94 1011.4
20260505215014 46 342 0.9 2.6 0.01 0.74 0.62 94 1011.5
20260505214530 46 0 0.9 1.7 0.01 0.74 0.62 93 1011.4
20260505214011 46 0 0.0 0.0 0.01 0.74 0.62 94 1011.4
20260505213513 46 0 0.0 0.0 0.02 0.74 0.62 93 1011.5
20260505213030 46 0 0.0 0.0 0.02 0.74 0.62 93 1011.6
20260505212515 46 0 0.0 0.0 0.02 0.74 0.62 93 1011.6
20260505212013 46 0 0.0 0.9 0.03 0.74 0.62 93 1011.7
20260505211528 46 0 0.0 0.9 0.03 0.74 0.62 93 1011.8
20260505211014 46 198 0.0 0.9 0.02 0.73 0.62 93 1011.9
20260505210512 46 0 0.0 0.9 0.02 0.73 0.62 93 1011.9
20260505210030 46 0 0.0 0.9 0.02 0.73 0.62 93 1012.0
20260505205513 46 311 0.0 1.7 0.01 0.74 0.61 93 1012.1
20260505205010 46 0 0.0 1.7 0.01 0.74 0.61 93 1011.9
20260505204530 46 0 0.9 2.6 0.01 0.74 0.61 93 1011.8
20260505204015 46 17 0.9 2.6 0.02 0.74 0.61 93 1011.7
20260505203513 46 318 1.7 2.6 0.01 0.73 0.60 93 1011.8
20260505203036 46 26 0.9 3.5 0.02 0.73 0.60 93 1011.8
20260505202519 46 12 1.7 3.5 0.01 0.72 0.59 93 1012.0
20260505202016 47 340 0.9 1.7 0.02 0.72 0.59 93 1012.0
20260505201537 47 329 0.9 1.7 0.02 0.72 0.59 93 1012.1
20260505201014 47 349 0.9 1.7 0.03 0.72 0.59 93 1012.2
20260505200513 47 310 0.0 1.7 0.05 0.72 0.59 93 1012.4
20260505200034 47 298 0.0 1.7 0.06 0.72 0.59 93 1012.3
20260505195619 47 329 0.9 5.2 0.07 0.81 0.59 93 1012.2
20260505195015 47 320 0.9 5.2 0.09 0.81 0.59 93 1012.3
20260505194532 47 311 0.9 5.2 0.11 0.81 0.59 92 1012.2
20260505194024 48 336 2.6 5.2 0.12 0.80 0.59 92 1012.1
20260505193510 48 34 0.9 3.5 0.13 0.79 0.58 92 1012.1
20260505193031 48 0 0.0 3.5 0.14 0.79 0.58 92 1012.0
20260505192609 48 302 0.9 7.8 0.15 0.78 0.57 92 1011.8
20260505192014 48 306 2.6 7.8 0.17 0.78 0.57 92 1011.7
20260505191532 48 317 0.9 7.0 0.18 0.78 0.57 92 1011.6
20260505191044 48 348 2.6 7.8 0.18 0.77 0.55 92 1011.3
20260505190519 48 327 2.6 7.8 0.19 0.75 0.54 91 1011.2
20260505190038 49 306 1.7 7.0 0.18 0.74 0.52 91 1011.3
20260505185515 49 315 0.9 6.1 0.18 0.73 0.51 91 1011.2
20260505185014 49 240 2.6 8.7 0.18 0.71 0.49 91 1011.3
20260505184532 50 312 3.5 8.7 0.18 0.70 0.48 91 1011.3
20260505184021 50 0 0.9 2.6 0.19 0.68 0.46 92 1011.1
20260505183510 50 20 0.0 2.6 0.20 0.66 0.44 92 1011.0
20260505183217 50 0 0.0 0.9 0.21 0.65 0.43 92 1010.9
20260505182514 50 0 0.0 0.9 0.20 0.62 0.40 92 1010.8
20260505182013 50 0 0.0 0.9 0.19 0.62 0.40 92 1010.7
20260505181609 50 0 0.0 0.0 0.18 0.60 0.38 91 1010.6
20260505181011 51 0 0.0 0.9 0.15 0.58 0.36 91 1010.6
20260505180512 51 0 0.0 0.9 0.14 0.56 0.34 91 1010.5
20260505180030 51 0 0.0 0.9 0.13 0.55 0.33 91 1010.5
20260505175515 51 145 0.0 0.9 0.11 0.55 0.32 90 1010.5
20260505175018 51 0 0.0 2.6 0.09 0.52 0.29 90 1010.4
20260505174537 51 0 0.0 2.6 0.07 0.51 0.28 90 1010.4
20260505174016 51 194 0.0 3.5 0.06 0.49 0.26 90 1010.4
20260505173540 51 107 0.0 3.5 0.03 0.46 0.23 89 1010.4
20260505173040 51 0 0.0 1.7 0.01 0.44 0.22 89 1010.3
20260505172011 52 193 0.9 6.1 0.12 0.43 0.20 87 1010.2
20260505171541 52 239 0.9 6.1 0.11 0.42 0.19 86 1010.2
20260505171015 53 203 0.9 6.1 0.11 0.41 0.18 84 1010.2
20260505170511 53 146 0.9 5.2 0.06 0.37 0.14 83 1010.0
20260505170032 54 71 1.7 4.3 0.03 0.33 0.11 80 1010.0
20260505165518 54 314 0.0 2.6 0.00 0.30 0.07 78 1009.9
20260505165014 54 151 0.9 7.0 0.00 0.30 0.07 76 1009.7
20260505164529 55 246 0.9 7.0 0.00 0.30 0.07 76 1009.8
20260505164014 55 144 1.7 7.0 0.00 0.30 0.07 75 1009.8
20260505163514 56 234 2.6 7.0 0.00 0.30 0.07 74 1009.7
20260505163028 56 0 0.9 6.1 0.00 0.30 0.07 73 1009.8
20260505162514 57 316 1.7 7.0 0.00 0.30 0.07 71 1009.7
20260505162015 58 250 2.6 9.6 0.00 0.30 0.07 69 1009.6
20260505161530 59 198 2.6 9.6 0.00 0.30 0.07 67 1009.6
20260505161014 61 192 1.7 19.1 0.00 0.30 0.07 65 1009.5
20260505160517 63 68 2.6 20.9 0.00 0.30 0.07 62 1009.4
20260505153029 67 259 1.7 7.8 0.00 0.30 0.07 50 1009.1
20260505152513 67 311 2.6 7.8 0.00 0.30 0.07 48 1009.3
20260505152013 67 55 2.6 6.1 0.00 0.30 0.07 52 1009.1
20260505151534 67 346 1.7 5.2 0.00 0.30 0.07 54 1009.2
20260505151014 66 346 1.7 5.2 0.00 0.30 0.07 59 1009.2
20260505150514 65 43 1.7 10.4 0.00 0.30 0.07 59 1009.2
20260505140515 63 351 0.9 3.5 0.00 0.30 0.07 61 1009.6